Flag for Rwanda Weather past 2 weeks in Gitarama, Rwanda

Now
64 °F

Light rain. Broken clouds.


Feels Like: 64 °F
Forecast: 63 / 76 °F
Wind: No wind

Location: Kigali Airport

Current Time: Apr 27, 2015 at 7:51:43 AM

Latest Report: Apr 27, 2015 at 7:30 AM


Visibility: N/A

Pressure: 30.21 "Hg

Humidity: 100%

Dew point: 64 °F

Location of GitaramaLocation

Historic Weather in Gitarama — Graph

°F

Gitarama temperature yesterday

Maximum temperature yesterday: 75 °F (at 11:30 AM)
Minimum temperature yesterday: 63 °F (at 5:00 AM)
Average temperature yesterday: 68 °F

Past Weeks' High & Low Weather Summary

 TemperatureHumidityPressure
High82 °F (Apr 12, 1:00 PM)100% (Apr 12, 7:00 AM)30.27 "Hg (Apr 12, 7:00 AM)
Low61 °F (Apr 13, 6:00 AM)54% (Apr 20, 12:30 PM)30.01 "Hg (Apr 14, 2:30 PM)
Average69 °F90%30.15 "Hg
* Reported Apr 12 7:00 AM — Apr 27 7:00 AM, Gitarama, Weather by CustomWeather, © 2015

Note: Actual official high and low records may vary slightly from our data, if they occured in-between our weather recording intervals... More about our weather records

Advertising

Gitarama weather history for previous 24 hours

 ConditionsComfort  
Time TempWeatherWind HumidityBarometerVisibility
7:00 AM
Mon, Apr 27
64 °FBroken clouds.No wind100%30.21 "HgN/A
6:30 AM63 °FBroken clouds.No wind100%30.18 "HgN/A
6:00 AM63 °FBroken clouds.No wind100%30.15 "HgN/A
4:30 AM64 °FPartly cloudy.No wind100%30.15 "Hg5 mi
4:00 AM64 °FPartly cloudy.No wind100%30.15 "Hg5 mi
3:30 AM64 °FPartly cloudy.3 mph100%30.15 "Hg5 mi
3:00 AM64 °FPartly cloudy.3 mph100%30.15 "Hg5 mi
2:30 AM66 °FPartly cloudy.5 mph100%30.15 "Hg5 mi
2:00 AM66 °FPartly cloudy.3 mph100%30.15 "Hg5 mi
1:30 AM66 °FPartly cloudy.5 mph100%30.15 "HgN/A
1:00 AM66 °FPartly cloudy.7 mph100%30.15 "HgN/A
12:30 AM66 °FPassing clouds.7 mph100%30.15 "HgN/A
12:00 AM66 °FPassing clouds.No wind100%30.18 "HgN/A
11:30 PM
Sun, Apr 26
66 °FPassing clouds.No wind100%30.18 "HgN/A
11:00 PM66 °FPartly cloudy.3 mph100%30.15 "HgN/A
10:30 PM66 °FPartly cloudy.No wind100%30.15 "HgN/A
10:00 PM66 °FPartly cloudy.No wind100%30.18 "HgN/A
9:00 PM66 °FPassing clouds.3 mph100%30.18 "HgN/A
8:30 PM66 °FPassing clouds.3 mph100%30.15 "HgN/A
8:00 PM66 °FPassing clouds.3 mph100%30.15 "HgN/A
7:30 PM68 °FPartly cloudy.3 mph100%30.12 "HgN/A
6:00 PM70 °FPassing clouds.3 mph94%30.09 "HgN/A
5:30 PM70 °FPartly sunny.No wind94%30.07 "HgN/A
5:00 PM72 °FPartly sunny.3 mph88%30.07 "HgN/A
4:00 PM73 °FPartly sunny.5 mph78%30.09 "HgN/A
3:30 PM75 °FPartly sunny.3 mph74%30.09 "HgN/A
3:00 PM75 °FPartly sunny.3 mph69%30.09 "HgN/A
2:30 PM73 °FPartly sunny.3 mph74%30.12 "HgN/A
1:30 PM75 °FPartly sunny.3 mph74%30.12 "HgN/A
1:00 PM75 °FPartly sunny.3 mph74%30.12 "HgN/A
12:30 PM73 °FBroken clouds.5 mph78%30.15 "HgN/A
12:00 PM73 °FBroken clouds.7 mph78%30.18 "HgN/A
11:30 AM75 °FBroken clouds.7 mph74%30.18 "HgN/A
11:00 AM73 °FBroken clouds.8 mph83%30.18 "HgN/A
10:30 AM72 °FBroken clouds.7 mph83%30.21 "HgN/A
10:00 AM72 °FBroken clouds.6 mph83%30.21 "HgN/A
9:30 AM72 °FBroken clouds.No wind83%30.21 "HgN/A
9:00 AM70 °FBroken clouds.No wind94%30.21 "HgN/A
8:30 AM66 °FPartly sunny.3 mph100%30.18 "HgN/A
8:00 AM66 °FPartly sunny.No wind100%30.18 "HgN/A
7:30 AM64 °FScattered clouds.No wind100%30.18 "HgN/A
7:00 AM64 °FScattered clouds.3 mph100%30.15 "HgN/A
Weather by CustomWeather, © 2015

See weather overviewHow to use our weather pages